TimeEDT,TemperatureF,Dew PointF,Humidity,Sea Level PressureIn,VisibilityMPH,Wind Direction,Wind SpeedMPH,Gust SpeedMPH,PrecipitationIn,Events,Conditions,WindDirDegrees,DateUTC
12:15 AM,42.8,39.2,87,29.23,5.0,WSW,11.5,-,N/A,,Overcast,240,2011-10-15 04:15:00
12:35 AM,42.8,39.2,87,29.23,10.0,WSW,11.5,20.7,N/A,,Overcast,240,2011-10-15 04:35:00
12:55 AM,42.8,39.2,87,29.22,10.0,WSW,9.2,16.1,N/A,,Overcast,240,2011-10-15 04:55:00
1:15 AM,42.8,39.2,87,29.21,10.0,WSW,13.8,19.6,N/A,,Overcast,250,2011-10-15 05:15:00
1:35 AM,42.8,39.2,87,29.20,10.0,WSW,9.2,18.4,N/A,,Overcast,240,2011-10-15 05:35:00
1:55 AM,42.8,39.2,87,29.20,10.0,WSW,12.7,19.6,N/A,,Overcast,250,2011-10-15 05:55:00
2:15 AM,42.8,39.2,87,29.20,10.0,WSW,12.7,19.6,N/A,,Overcast,240,2011-10-15 06:15:00
2:35 AM,42.8,39.2,87,29.19,5.0,WSW,10.4,17.3,N/A,,Overcast,250,2011-10-15 06:35:00
2:55 AM,42.8,39.2,87,29.18,6.0,WSW,10.4,-,N/A,,Overcast,250,2011-10-15 06:55:00
3:15 AM,42.8,39.2,87,29.18,3.0,WSW,11.5,18.4,N/A,,Overcast,250,2011-10-15 07:15:00
3:35 AM,42.8,39.2,87,29.17,3.0,WSW,11.5,19.6,N/A,,Overcast,240,2011-10-15 07:35:00
3:55 AM,42.8,39.2,87,29.16,2.5,WSW,9.2,18.4,N/A,,Overcast,250,2011-10-15 07:55:00
4:15 AM,42.8,39.2,87,29.15,2.5,WSW,11.5,18.4,N/A,,Overcast,250,2011-10-15 08:15:00
4:35 AM,42.8,39.2,87,29.15,2.0,WSW,11.5,17.3,N/A,,Overcast,250,2011-10-15 08:35:00
4:55 AM,42.8,39.2,87,29.15,2.5,WSW,12.7,-,0.01,,Overcast,250,2011-10-15 08:55:00
5:15 AM,44.6,41.0,87,29.15,3.0,West,13.8,20.7,N/A,,Overcast,270,2011-10-15 09:15:00
5:35 AM,44.6,41.0,87,29.16,3.0,West,17.3,24.2,N/A,,Overcast,280,2011-10-15 09:35:00
5:55 AM,44.6,41.0,87,29.16,5.0,WNW,20.7,26.5,0.01,,Overcast,290,2011-10-15 09:55:00
6:15 AM,44.6,41.0,87,29.16,4.0,WNW,20.7,27.6,N/A,,Overcast,290,2011-10-15 10:15:00
6:35 AM,44.6,41.0,87,29.17,4.0,WNW,17.3,27.6,0.01,,Overcast,300,2011-10-15 10:35:00
6:55 AM,44.6,39.2,81,29.16,5.0,WNW,19.6,36.8,0.02,,Overcast,300,2011-10-15 10:55:00
7:15 AM,44.6,39.2,81,29.16,8.0,WNW,26.5,40.3,N/A,,Overcast,300,2011-10-15 11:15:00
7:35 AM,44.6,39.2,81,29.17,10.0,WNW,25.3,38.0,N/A,,Overcast,300,2011-10-15 11:35:00
7:55 AM,44.6,39.2,81,29.18,5.0,WNW,19.6,38.0,N/A,,Overcast,300,2011-10-15 11:55:00
8:15 AM,44.6,39.2,81,29.19,3.0,WNW,24.2,38.0,N/A,,Overcast,300,2011-10-15 12:15:00
8:35 AM,44.6,39.2,81,29.20,2.5,WNW,20.7,36.8,N/A,,Overcast,300,2011-10-15 12:35:00
8:55 AM,42.8,39.2,87,29.21,4.0,WNW,24.2,35.7,N/A,,Overcast,300,2011-10-15 12:55:00
9:15 AM,42.8,39.2,87,29.22,5.0,WNW,27.6,40.3,N/A,,Overcast,300,2011-10-15 13:15:00
9:35 AM,42.8,39.2,87,29.23,10.0,WNW,26.5,39.1,0.01,,Overcast,300,2011-10-15 13:35:00
9:55 AM,42.8,39.2,87,29.24,9.0,WNW,23.0,36.8,0.01,,Overcast,290,2011-10-15 13:55:00
10:15 AM,42.8,39.2,87,29.25,10.0,WNW,21.9,44.9,N/A,,Overcast,290,2011-10-15 14:15:00
10:35 AM,42.8,37.4,81,29.25,10.0,WNW,26.5,41.4,N/A,,Overcast,300,2011-10-15 14:35:00
10:55 AM,42.8,37.4,81,29.26,10.0,WNW,26.5,35.7,N/A,,Overcast,300,2011-10-15 14:55:00
11:15 AM,42.8,37.4,81,29.27,10.0,WNW,28.8,39.1,N/A,,Overcast,300,2011-10-15 15:15:00
11:35 AM,42.8,37.4,81,29.29,10.0,WNW,24.2,41.4,N/A,,Overcast,300,2011-10-15 15:35:00
11:55 AM,42.8,39.2,87,29.30,10.0,WNW,23.0,36.8,N/A,,Overcast,300,2011-10-15 15:55:00
12:15 PM,42.8,39.2,87,29.31,5.0,WNW,20.7,38.0,N/A,,Overcast,300,2011-10-15 16:15:00
12:35 PM,42.8,39.2,87,29.31,5.0,WNW,23.0,34.5,N/A,,Overcast,290,2011-10-15 16:35:00
12:55 PM,42.8,39.2,87,29.32,4.0,WNW,23.0,28.8,N/A,,Overcast,290,2011-10-15 16:55:00
1:35 PM,44.6,37.4,76,29.34,10.0,WNW,21.9,35.7,N/A,,Overcast,290,2011-10-15 17:35:00
1:55 PM,44.6,37.4,76,29.34,10.0,WNW,27.6,38.0,N/A,,Overcast,290,2011-10-15 17:55:00
2:15 PM,44.6,37.4,76,29.35,10.0,WNW,24.2,33.4,N/A,,Overcast,290,2011-10-15 18:15:00
2:35 PM,44.6,35.6,71,29.36,10.0,WNW,26.5,34.5,N/A,,Overcast,290,2011-10-15 18:35:00
2:55 PM,44.6,35.6,71,29.37,10.0,WNW,21.9,40.3,N/A,,Overcast,290,2011-10-15 18:55:00
3:15 PM,44.6,33.8,66,29.38,10.0,WNW,20.7,42.6,N/A,,Overcast,290,2011-10-15 19:15:00
3:35 PM,44.6,33.8,66,29.39,10.0,WNW,28.8,38.0,N/A,,Overcast,290,2011-10-15 19:35:00
3:55 PM,46.4,33.8,62,29.40,10.0,WNW,23.0,38.0,N/A,,Overcast,290,2011-10-15 19:55:00
4:15 PM,46.4,33.8,62,29.42,10.0,WNW,21.9,34.5,N/A,,Overcast,290,2011-10-15 20:15:00
4:35 PM,46.4,32.0,57,29.43,10.0,WNW,25.3,38.0,N/A,,Overcast,290,2011-10-15 20:35:00
4:55 PM,46.4,33.8,62,29.44,10.0,WNW,20.7,31.1,N/A,,Overcast,290,2011-10-15 20:55:00
5:15 PM,46.4,33.8,62,29.45,10.0,WNW,17.3,32.2,N/A,,Overcast,290,2011-10-15 21:15:00
5:35 PM,44.6,35.6,71,29.47,10.0,West,15.0,31.1,N/A,,Overcast,280,2011-10-15 21:35:00
5:55 PM,42.8,35.6,76,29.48,10.0,WNW,17.3,31.1,N/A,,Overcast,290,2011-10-15 21:55:00
6:15 PM,44.6,35.6,71,29.49,10.0,West,18.4,25.3,N/A,,Mostly Cloudy,280,2011-10-15 22:15:00
6:35 PM,42.8,35.6,76,29.49,10.0,West,21.9,27.6,N/A,,Mostly Cloudy,280,2011-10-15 22:35:00
6:55 PM,42.8,35.6,76,29.50,10.0,West,21.9,33.4,N/A,,Mostly Cloudy,280,2011-10-15 22:55:00
7:15 PM,42.8,35.6,76,29.52,10.0,West,17.3,27.6,N/A,,Overcast,280,2011-10-15 23:15:00
7:35 PM,42.8,35.6,76,29.53,10.0,West,16.1,29.9,N/A,,Overcast,270,2011-10-15 23:35:00
7:55 PM,42.8,35.6,76,29.53,10.0,West,12.7,19.6,N/A,,Overcast,270,2011-10-15 23:55:00
8:15 PM,42.8,35.6,76,29.54,10.0,West,18.4,23.0,N/A,,Overcast,280,2011-10-16 00:15:00
8:35 PM,42.8,35.6,76,29.54,10.0,West,10.4,16.1,N/A,,Overcast,260,2011-10-16 00:35:00
8:55 PM,42.8,35.6,76,29.54,10.0,West,10.4,-,N/A,,Overcast,260,2011-10-16 00:55:00
9:15 PM,42.8,35.6,76,29.54,10.0,West,9.2,-,N/A,,Overcast,260,2011-10-16 01:15:00
9:35 PM,42.8,35.6,76,29.55,10.0,WSW,8.1,-,N/A,,Overcast,250,2011-10-16 01:35:00
9:55 PM,42.8,35.6,76,29.55,10.0,WSW,10.4,-,N/A,,Overcast,250,2011-10-16 01:55:00
10:15 PM,42.8,35.6,76,29.56,10.0,West,9.2,-,N/A,,Overcast,270,2011-10-16 02:15:00
10:35 PM,42.8,35.6,76,29.55,10.0,West,10.4,-,N/A,,Overcast,270,2011-10-16 02:35:00
10:55 PM,42.8,35.6,76,29.55,10.0,WSW,9.2,-,N/A,,Overcast,250,2011-10-16 02:55:00
11:15 PM,42.8,35.6,76,29.55,10.0,West,10.4,-,N/A,,Overcast,260,2011-10-16 03:15:00
11:35 PM,42.8,35.6,76,29.56,10.0,West,9.2,-,N/A,,Overcast,260,2011-10-16 03:35:00
11:55 PM,44.6,35.6,71,29.56,10.0,West,13.8,-,N/A,,Overcast,260,2011-10-16 03:55:00